Pagina principale
METAR-TAF:

METAR-TAF

Aeroporti :

Linden, New Jersey, Stati Uniti

latitudine: 40-37-03N, longitudine: 074-14-40W, altezza: 7 m

Osservazione

Il bollettino è stato emesso 24 minuti fa, alle 07:55 UTC
Vento calmo
Temperature 24°C
Umidità 78%
Pressione 1016 hPa
Visibilità: 16.1 km
Cielo sereno

METAR: KLDJ 160755Z AUTO 00000KT 10SM CLR 24/20 A2999 RMK AO2 T02410201

Ora: 04:19 (08:19 UTC)


TAF: mancante

Osservazioni e previsioni meteorologiche di più di 4000 aeroporti (messaggi METAR e TAF).

Le stazioni disponibili sono rappresentate dai dischi gialli e rossi sulla carta.

Puntare il mouse per vedere il nome della stazione.

Clicca sopra per visualizzare le osservazioni e previsioni meteorologiche.

Per cambiare la mappa : fare clic sui pulsanti verdi con una croce nera per ingrandire, il pulsante verde con un trattino per diminuire, o sulla freccia verde per le mappe adiacenti.


METAR-TAF: